Wind_Speed
14 15 15 16 8 7 3 3 11 4 9 9 8 6 5 8 3 6 6 7 9 8 8 10 9 8 7 6 6 6 7 8 9 10 11 12 13 13 12 11 9 8 8 8 7 7 6 6 6
14 14 15 16 12 1 10 5 10 8 7 10 11 10 6 7 3 2 5 6 6 7 9 11 9 8 7 6 5 6 8 8 9 10 10 11 11 12 13 12 10 8 7 7 7 7 7 6 6
15 14 13 12 8 2 4 14 22 8 2 7 11 9 9 9 9 5 6 6 6 9 11 12 9 9 7 6 7 7 8 8 9 9 10 9 9 11 12 11 8 7 7 8 8 7 7 7 8
16 13 15 12 9 5 9 26 12 9 4 5 7 3 5 10 9 9 7 9 10 11 13 13 11 11 10 9 10 10 10 9 8 7 7 6 10 12 11 10 8 8 9 11 10 10 9 8 9
18 15 14 9 6 9 10 12 17 7 12 10 8 3 8 7 8 8 7 8 8 8 10 13 14 13 12 12 12 11 11 9 8 6 4 6 10 11 10 7 7 8 9 10 9 10 11 13 13
20 18 14 10 5 10 8 10 12 11 13 10 5 5 9 9 10 11 11 10 8 7 10 12 12 11 12 13 13 13 12 10 6 3 3 7 10 9 7 5 5 7 9 9 8 8 10 11 12
21 21 13 7 5 8 11 10 10 9 8 3 10 9 12 10 11 13 15 14 13 10 10 11 11 10 12 13 15 13 11 7 4 2 4 8 9 7 5 3 4 6 10 12 10 8 9 9 9
21 23 16 14 11 13 9 10 6 6 1 6 13 4 12 20 22 20 11 11 9 10 11 10 10 11 13 15 15 12 8 5 3 3 6 8 7 6 4 3 4 5 7 10 10 9 10 9 9
19 25 21 17 12 11 13 8 6 6 2 6 11 14 13 18 20 19 17 10 9 8 8 10 11 13 14 13 11 10 6 5 3 5 6 6 6 5 4 5 4 5 6 9 9 10 10 9 8
16 27 22 19 18 11 13 11 5 4 5 8 10 9 18 13 20 15 16 10 5 5 7 9 9 9 10 9 9 7 6 4 5 4 4 4 5 5 5 6 6 5 7 9 9 9 10 11 10
14 28 24 21 20 16 11 10 8 5 4 8 11 17 20 14 16 15 14 11 8 7 5 6 7 7 6 6 6 6 6 5 6 4 3 4 4 6 7 7 7 6 7 7 9 8 10 11 11
17 35 27 24 25 23 22 25 3 2 7 6 10 14 15 9 15 17 16 14 9 7 4 2 4 5 5 5 6 7 8 7 7 6 6 4 5 6 7 7 6 5 6 7 10 9 11 13 14
20 40 35 32 29 25 26 24 19 3 8 6 7 8 8 9 13 10 14 16 15 7 4 2 3 3 5 7 8 10 11 10 8 9 9 8 7 7 6 7 5 5 7 8 9 10 11 12 14
23 39 41 35 27 24 19 16 18 5 4 8 4 4 6 4 9 13 14 15 13 13 8 5 1 3 5 6 8 9 11 12 11 12 12 12 12 9 8 9 8 8 7 9 11 11 12 12 14
16 30 42 39 31 26 21 17 10 14 11 14 2 4 7 8 10 6 6 9 11 11 12 12 10 7 5 6 7 9 9 12 13 13 15 17 15 13 12 12 12 11 11 11 11 14 14 15 15
13 17 41 40 35 27 29 14 12 10 10 9 10 9 15 16 14 13 10 7 1 2 2 9 7 9 8 10 9 11 13 15 15 14 15 19 20 19 17 17 18 17 16 16 15 17 16 18 18
17 19 31 44 37 36 35 26 24 27 23 25 23 23 23 21 20 19 17 16 12 12 9 5 1 5 8 13 13 14 11 13 17 19 19 19 19 21 22 22 23 21 21 18 18 18 18 19 20
17 22 27 29 42 41 37 31 31 30 29 32 30 29 30 25 24 24 24 24 21 18 15 13 12 10 9 11 13 15 16 17 17 20 22 22 20 20 23 26 26 25 23 22 21 20 18 20 19
26 30 33 24 33 36 29 29 29 30 30 30 32 32 30 28 26 26 29 28 26 23 23 18 17 15 17 15 16 19 21 24 21 21 24 27 30 27 25 25 26 29 27 25 23 23 22 19 19
29 32 32 32 26 24 23 28 28 31 34 35 35 36 33 31 30 29 34 36 28 27 28 27 27 25 20 23 29 29 28 26 28 27 24 26 31 34 33 31 28 26 26 27 28 26 24 22 21
30 29 34 26 20 19 19 28 35 34 35 35 35 34 36 36 38 39 36 37 34 34 36 34 33 31 30 30 33 31 38 28 33 32 30 27 30 33 33 34 33 32 28 27 27 29 29 26 25
31 31 32 31 27 22 28 29 33 40 38 40 38 38 39 39 37 39 42 44 44 42 43 42 41 38 37 38 37 40 40 42 44 40 41 35 31 36 35 32 34 35 32 30 28 30 30 33 31
30 30 33 37 34 29 32 39 38 38 40 40 39 38 40 43 44 45 48 49 49 47 44 46 48 45 43 41 41 41 45 47 51 56 47 44 42 41 36 43 38 38 37 35 34 36 37 38 38
30 30 26 28 31 36 38 41 47 47 45 45 46 47 48 50 51 52 53 54 57 58 55 53 51 51 51 51 51 52 55 54 51 54 52 45 36 42 45 42 49 46 44 43 41 43 45 46 42
31 30 27 28 30 36 38 43 51 52 52 55 55 55 53 55 57 56 58 52 50 49 51 58 60 58 56 54 54 51 51 51 51 49 47 41 42 45 42 42 38 50 51 51 53 52 52 56 49
32 32 28 27 30 36 40 44 46 47 49 53 55 56 53 56 57 58 58 58 55 53 53 53 54 55 55 57 59 61 60 59 58 56 53 51 48 50 47 48 53 54 56 59 65 68 69 60 49
35 34 32 31 34 35 39 43 45 44 47 46 43 45 49 53 57 60 63 62 60 60 59 58 60 63 65 67 67 68 68 69 67 64 62 61 57 57 54 55 55 53 55 58 65 64 77 72 54
40 38 38 38 37 37 37 39 42 42 42 44 46 44 46 46 51 55 58 59 61 63 65 66 69 69 67 66 67 66 67 69 68 67 66 68 64 65 63 60 54 54 54 59 64 83 78 54 39
38 39 39 39 40 39 44 40 38 42 45 48 52 53 54 53 52 49 48 49 51 54 53 61 64 65 67 75 73 74 71 72 72 73 72 74 72 69 66 65 56 52 52 53 58 44 46 70 38
40 41 40 40 43 45 43 44 42 43 43 45 46 49 50 51 52 54 56 57 59 60 62 64 65 66 67 70 73 74 78 79 79 81 79 79 75 71 69 66 64 53 52 51 51 52 36 48 22
Wind_Direction
180 177 174 173 181 171 191 278 259 286 112 59 37 98 72 69 22 297 327 322 318 315 320 315 319 325 337 344 345 339 334 333 329 327 331 335 338 344 346 347 359 5 11 11 18 26 30 35 36
202 186 188 193 212 239 29 78 199 229 76 52 26 14 24 70 93 357 16 3 348 333 316 312 318 322 322 326 327 319 318 319 317 321 327 334 347 349 343 353 1 8 18 26 34 34 40 45 40
212 186 180 195 185 136 57 88 187 189 100 17 15 351 335 359 346 334 334 327 324 322 314 310 317 312 309 307 297 293 298 303 305 315 325 338 352 352 354 359 9 18 28 34 36 31 28 33 30
209 172 166 195 166 96 84 95 119 136 210 141 98 351 359 352 344 346 317 296 302 305 310 308 305 303 299 292 286 291 293 292 296 310 323 347 352 357 4 7 22 28 34 44 42 38 34 28 26
207 172 161 169 116 170 124 110 114 114 185 158 121 251 287 323 315 326 350 335 303 291 296 303 303 304 290 287 285 283 281 281 291 305 319 344 353 359 8 12 18 28 29 38 45 39 36 37 38
205 169 175 165 183 167 141 118 109 136 159 178 210 275 260 283 301 316 319 325 323 317 313 313 305 293 294 288 281 276 275 280 285 289 317 346 350 358 6 18 19 19 14 13 14 26 35 39 48
202 176 173 177 172 164 157 111 117 107 127 101 350 267 266 276 296 297 301 310 320 307 312 310 308 303 291 287 279 276 277 276 271 276 334 339 350 1 359 15 4 23 30 30 21 17 25 39 38
200 182 166 194 154 154 138 117 138 98 158 354 33 348 329 318 314 323 318 307 297 302 301 304 304 293 286 287 283 276 269 254 256 317 331 342 356 1 353 344 4 16 356 353 9 29 39 34 29
200 177 176 201 199 216 249 207 157 141 321 313 0 360 350 341 328 341 334 320 298 303 311 307 295 286 284 281 275 267 248 245 279 310 333 354 357 359 345 323 347 1 359 2 3 1 5 12 21
201 178 187 202 211 204 234 239 190 218 266 301 348 353 3 332 333 342 342 308 315 337 324 311 294 279 276 273 266 257 245 242 276 311 343 354 359 350 333 326 328 11 6 3 4 15 19 18 20
196 178 191 208 213 223 233 219 210 216 291 329 346 348 350 339 318 341 353 345 338 348 337 297 285 277 276 269 257 239 240 255 278 293 326 346 336 325 326 332 334 5 13 13 12 17 358 359 6
190 186 190 207 227 222 231 253 305 341 281 325 1 33 29 323 320 351 353 357 359 336 324 259 271 276 275 271 259 241 245 260 282 280 292 293 292 306 317 323 319 343 11 6 3 354 356 353 352
189 189 198 213 222 236 240 253 267 290 1 347 15 26 27 22 22 354 339 347 346 316 313 287 254 261 281 280 269 267 265 274 286 276 282 273 277 290 289 291 305 322 335 349 341 334 345 342 337
205 202 203 210 212 224 236 243 266 282 293 249 349 354 1 21 20 9 356 353 345 342 355 339 281 245 250 271 279 278 287 285 293 284 281 279 265 268 275 269 289 304 317 331 324 319 320 321 318
210 208 214 214 211 223 234 248 276 286 287 245 124 311 351 353 345 43 355 12 3 350 351 354 347 342 319 261 264 265 268 277 287 292 285 279 278 260 261 263 271 284 293 298 298 304 305 299 299
203 209 215 215 216 225 237 233 242 237 278 213 228 231 213 221 231 214 209 220 175 42 19 354 329 331 338 323 299 278 272 272 275 278 283 283 279 273 262 262 268 274 276 281 283 287 292 299 299
213 202 206 213 214 220 232 232 233 223 217 206 211 224 221 226 230 239 230 228 222 197 199 216 85 316 323 326 315 295 283 289 280 273 269 270 277 280 273 267 268 270 268 268 270 278 291 295 295
212 205 192 191 213 223 233 229 232 215 217 208 223 235 246 232 232 239 255 241 231 227 225 224 223 225 241 270 288 290 282 274 271 264 261 259 262 270 275 269 267 266 265 265 269 274 280 284 289
199 187 170 187 192 207 210 214 212 216 216 224 231 234 240 239 242 241 248 254 253 252 244 244 235 233 238 258 256 271 277 274 270 274 270 263 259 250 243 251 260 266 262 262 263 266 268 270 278
216 192 177 194 200 210 208 209 215 214 213 221 224 233 241 255 251 249 261 250 252 267 262 259 258 253 251 245 266 276 270 273 281 279 274 267 265 259 253 246 241 242 254 260 260 260 259 261 268
224 210 191 211 212 224 229 215 218 222 219 223 233 241 245 250 258 258 260 267 259 270 274 267 270 270 270 265 266 275 272 264 281 276 275 275 267 267 264 261 252 247 241 243 255 261 260 258 262
229 225 208 202 213 233 231 231 226 231 238 233 237 245 247 249 255 259 265 267 265 266 270 273 273 275 271 269 270 278 279 273 275 260 258 249 253 262 262 259 259 256 248 248 251 254 259 264 258
235 234 220 222 219 240 239 235 234 235 235 241 244 252 255 254 255 256 257 263 265 265 269 269 273 276 273 271 272 275 277 277 280 279 256 252 251 255 256 272 258 257 257 250 252 254 256 255 258
242 236 241 240 240 236 237 238 240 240 243 244 245 249 252 256 255 258 260 262 263 262 266 271 274 275 276 277 279 278 279 278 281 287 289 293 286 301 288 281 265 260 258 255 253 254 254 251 248
245 243 246 247 243 244 241 240 243 243 246 248 248 250 256 260 257 258 257 257 262 264 265 266 269 274 275 278 280 278 279 281 281 284 290 294 291 294 300 296 287 282 270 270 264 252 252 254 246
250 251 247 250 248 246 246 246 249 251 251 249 251 254 255 250 251 251 252 255 256 260 264 265 266 269 272 274 277 278 280 282 282 285 286 290 291 291 292 293 292 290 288 279 272 258 262 253 248
254 252 254 254 258 256 253 253 257 256 254 254 258 257 258 258 257 257 256 256 257 259 259 261 262 265 269 272 273 273 274 276 279 282 284 286 286 288 290 290 293 286 277 289 278 267 259 261 240
252 256 257 262 262 259 259 258 259 261 262 261 262 261 263 267 263 260 259 260 263 265 263 260 260 261 260 261 264 268 272 273 274 275 277 280 282 284 283 283 286 285 288 288 285 282 261 242 254
253 255 254 259 257 262 259 254 266 272 272 269 268 268 269 271 269 269 267 269 270 272 271 267 266 267 267 268 266 266 264 264 267 270 273 276 276 277 277 276 276 279 286 284 291 289 259 252 249
253 255 258 259 264 269 277 280 277 274 272 271 273 273 274 274 273 273 273 273 275 274 272 270 269 270 271 268 266 266 267 266 267 268 269 272 271 270 272 276 276 271 279 276 278 291 270 246 270
Height
5893 5895 5896 5898 5900 5899 5900 5900 5898 5899 5899 5900 5900 5903 5904 5903 5904 5906 5905 5905 5904 5904 5903 5903 5902 5902 5901 5900 5899 5899 5899 5898 5896 5895 5893 5892 5891 5890 5888 5886 5883 5881 5880 5878 5876 5875 5874 5873 5873
5891 5895 5897 5898 5899 5899 5900 5896 5897 5899 5901 5901 5900 5900 5902 5903 5902 5904 5905 5904 5904 5904 5903 5903 5902 5901 5901 5900 5899 5899 5899 5898 5896 5895 5894 5893 5892 5891 5890 5887 5885 5882 5880 5879 5877 5877 5876 5874 5873
5890 5893 5896 5896 5898 5899 5898 5891 5893 5900 5902 5902 5901 5901 5901 5899 5900 5903 5904 5903 5903 5904 5904 5903 5901 5901 5901 5900 5900 5899 5898 5897 5896 5895 5894 5893 5892 5891 5891 5889 5886 5883 5881 5880 5879 5878 5877 5875 5874
5889 5893 5895 5895 5898 5899 5898 5891 5900 5902 5903 5904 5904 5905 5903 5901 5901 5901 5902 5903 5903 5904 5904 5903 5902 5901 5901 5901 5900 5899 5898 5897 5896 5896 5895 5895 5893 5893 5891 5890 5888 5885 5883 5881 5880 5879 5878 5877 5875
5888 5891 5893 5896 5898 5898 5897 5899 5892 5899 5898 5902 5902 5902 5902 5900 5901 5902 5901 5902 5902 5903 5902 5902 5901 5901 5900 5900 5899 5898 5898 5897 5897 5896 5897 5896 5895 5893 5891 5890 5889 5887 5885 5883 5882 5880 5879 5878 5877
5888 5891 5893 5894 5895 5896 5896 5895 5894 5897 5899 5901 5902 5899 5900 5899 5900 5902 5902 5902 5902 5902 5901 5901 5900 5899 5899 5899 5899 5898 5897 5897 5897 5897 5897 5896 5895 5893 5892 5891 5890 5888 5886 5884 5883 5882 5881 5880 5879
5887 5890 5891 5892 5892 5893 5894 5893 5894 5896 5899 5899 5898 5899 5900 5898 5899 5899 5899 5899 5900 5899 5899 5900 5899 5898 5899 5899 5898 5897 5897 5897 5897 5897 5896 5896 5895 5894 5893 5891 5891 5889 5887 5885 5884 5883 5883 5881 5880
5886 5888 5890 5890 5893 5892 5890 5891 5892 5895 5896 5896 5898 5900 5901 5899 5899 5897 5897 5897 5897 5898 5898 5898 5897 5897 5898 5898 5897 5897 5897 5897 5897 5897 5896 5896 5895 5894 5893 5892 5892 5890 5888 5886 5885 5884 5883 5883 5882
5883 5887 5888 5888 5891 5891 5892 5891 5892 5894 5896 5896 5898 5898 5899 5897 5896 5897 5896 5895 5895 5896 5896 5895 5895 5897 5897 5896 5896 5897 5897 5897 5896 5896 5895 5895 5895 5894 5893 5893 5892 5890 5889 5887 5885 5884 5883 5883 5883
5882 5885 5886 5887 5888 5890 5890 5888 5890 5894 5895 5896 5898 5899 5899 5896 5895 5896 5896 5893 5892 5892 5892 5893 5894 5895 5895 5895 5896 5896 5896 5896 5896 5895 5895 5895 5894 5894 5892 5892 5891 5890 5889 5888 5886 5884 5883 5883 5883
5882 5884 5884 5884 5886 5887 5887 5886 5889 5892 5893 5895 5897 5897 5898 5898 5896 5895 5894 5892 5890 5891 5891 5892 5894 5895 5895 5895 5895 5896 5896 5896 5896 5895 5895 5894 5894 5894 5893 5893 5892 5891 5889 5888 5886 5884 5883 5882 5882
5879 5880 5882 5883 5881 5884 5883 5882 5885 5890 5894 5895 5895 5897 5899 5899 5898 5894 5894 5893 5892 5893 5893 5892 5894 5895 5894 5894 5895 5895 5895 5895 5896 5895 5894 5893 5893 5893 5892 5892 5891 5889 5888 5887 5886 5884 5883 5881 5880
5875 5878 5877 5877 5879 5880 5881 5884 5885 5888 5892 5893 5892 5895 5899 5899 5898 5898 5896 5894 5893 5895 5894 5892 5891 5893 5894 5894 5894 5895 5895 5896 5895 5894 5893 5892 5892 5892 5891 5890 5890 5889 5888 5886 5885 5884 5882 5880 5878
5873 5872 5875 5876 5879 5880 5881 5883 5885 5889 5891 5891 5892 5895 5897 5899 5899 5899 5899 5898 5897 5896 5895 5892 5891 5891 5892 5893 5894 5894 5895 5895 5894 5893 5893 5892 5890 5889 5889 5890 5889 5888 5886 5885 5885 5882 5881 5880 5878
5872 5874 5874 5876 5878 5881 5880 5883 5886 5888 5889 5889 5893 5895 5896 5898 5898 5899 5900 5898 5899 5897 5896 5894 5892 5891 5892 5891 5890 5890 5891 5892 5892 5892 5892 5891 5890 5887 5887 5886 5885 5883 5884 5883 5883 5882 5880 5878 5877
5868 5871 5873 5876 5877 5880 5880 5880 5874 5882 5887 5889 5889 5885 5880 5881 5886 5886 5886 5888 5889 5885 5885 5890 5892 5892 5892 5892 5891 5890 5889 5888 5887 5888 5889 5889 5888 5886 5884 5883 5882 5881 5881 5881 5880 5879 5878 5874 5872
5864 5866 5869 5872 5872 5871 5871 5872 5872 5872 5874 5875 5875 5873 5875 5875 5877 5877 5879 5880 5880 5878 5878 5880 5880 5883 5884 5885 5886 5885 5885 5884 5884 5884 5884 5884 5884 5884 5883 5882 5880 5878 5878 5877 5875 5874 5872 5870 5868
5859 5860 5861 5862 5863 5865 5866 5868 5867 5865 5868 5869 5870 5867 5869 5870 5871 5871 5871 5873 5875 5873 5873 5874 5874 5876 5876 5879 5880 5879 5879 5878 5877 5875 5873 5872 5873 5875 5877 5877 5876 5874 5872 5870 5870 5869 5867 5865 5863
5853 5856 5858 5853 5857 5861 5863 5864 5862 5860 5860 5862 5862 5861 5862 5865 5867 5868 5866 5866 5868 5869 5870 5871 5871 5871 5871 5872 5872 5873 5873 5872 5874 5873 5871 5869 5866 5863 5861 5863 5866 5869 5867 5865 5864 5864 5862 5860 5858
5848 5852 5855 5850 5853 5856 5859 5860 5860 5858 5856 5855 5856 5858 5859 5861 5862 5862 5863 5862 5861 5861 5864 5865 5866 5865 5864 5865 5867 5866 5866 5865 5866 5867 5865 5864 5863 5860 5858 5856 5853 5852 5858 5860 5858 5856 5855 5854 5851
5844 5849 5851 5847 5845 5847 5851 5855 5854 5853 5851 5851 5852 5853 5854 5856 5856 5856 5856 5855 5855 5855 5855 5857 5858 5860 5859 5859 5858 5859 5857 5855 5857 5858 5859 5859 5859 5856 5855 5855 5853 5847 5845 5845 5847 5849 5848 5847 5845
5838 5841 5847 5847 5844 5847 5847 5847 5845 5845 5847 5847 5848 5847 5847 5849 5849 5849 5847 5847 5848 5849 5849 5848 5849 5851 5852 5851 5851 5850 5849 5847 5845 5844 5844 5845 5845 5847 5845 5844 5846 5844 5839 5840 5838 5838 5839 5839 5836
5836 5836 5840 5842 5843 5841 5841 5841 5841 5842 5841 5841 5841 5841 5841 5840 5840 5841 5841 5841 5841 5840 5840 5840 5840 5840 5842 5842 5842 5843 5839 5835 5833 5830 5823 5826 5836 5831 5835 5840 5835 5834 5833 5831 5829 5828 5827 5828 5827
5831 5832 5832 5834 5834 5836 5835 5834 5831 5833 5834 5835 5836 5836 5836 5835 5835 5834 5832 5832 5831 5831 5831 5831 5831 5832 5832 5832 5833 5832 5830 5827 5826 5823 5822 5824 5822 5829 5831 5820 5830 5826 5823 5822 5821 5817 5814 5813 5816
5824 5825 5826 5826 5825 5826 5827 5826 5822 5824 5825 5826 5826 5827 5828 5828 5827 5825 5825 5825 5823 5823 5823 5823 5822 5822 5822 5820 5820 5820 5818 5816 5816 5817 5815 5818 5821 5821 5817 5818 5821 5821 5821 5816 5815 5805 5802 5800 5801
5817 5819 5820 5818 5818 5819 5818 5815 5816 5815 5816 5817 5818 5818 5818 5819 5818 5818 5818 5818 5818 5817 5814 5813 5812 5811 5810 5810 5808 5807 5806 5805 5803 5804 5804 5806 5806 5807 5808 5807 5808 5809 5807 5801 5794 5796 5784 5762 5768
5809 5812 5813 5813 5812 5810 5809 5808 5808 5808 5809 5810 5810 5810 5810 5810 5810 5809 5809 5808 5807 5807 5806 5804 5802 5800 5797 5794 5795 5793 5793 5792 5791 5789 5789 5792 5794 5793 5794 5794 5795 5792 5789 5783 5780 5774 5773 5763 5763
5802 5804 5805 5804 5803 5802 5801 5800 5799 5800 5801 5801 5802 5802 5800 5799 5798 5797 5796 5794 5792 5792 5791 5790 5788 5786 5785 5784 5781 5779 5776 5775 5776 5777 5778 5777 5779 5778 5780 5780 5781 5776 5771 5767 5763 5749 5748 5753 5758
5795 5795 5796 5796 5795 5794 5794 5793 5795 5794 5792 5790 5789 5788 5787 5787 5786 5784 5783 5782 5779 5778 5775 5773 5773 5772 5770 5770 5767 5765 5764 5761 5760 5759 5761 5759 5761 5763 5763 5763 5765 5763 5762 5757 5749 5739 5736 5746 5747
5786 5787 5788 5788 5787 5785 5783 5784 5785 5783 5781 5778 5777 5774 5772 5770 5769 5768 5766 5766 5765 5764 5761 5759 5757 5756 5753 5751 5750 5747 5746 5744 5744 5743 5743 5741 5743 5746 5745 5746 5744 5750 5751 5748 5741 5733 5730 5736 5738